• In Hungary
  • List of Countries
  • For 7 days
  • Water Temperature
  • Satellite Maps
  • Weather Map
  • News
  • Weather Widgets
  • user-avatar
    Login

    Hourly Weather Turin

    Today, 24 September, Monday

    Time Temperature Precipitation Wind Pressure Humidity
    00:00 +23°C° 0 mm 2 mps 739 mmHg 81%
    01:00 +22°C° 0 mm 3 mps 739 mmHg 81%
    02:00 +23°C° 0 mm 2 mps 739 mmHg 82%
    03:00 +21°C° 0 mm 2 mps 739 mmHg 82%
    04:00 +21°C° 0 mm 2 mps 739 mmHg 82%
    05:00 +21°C° 0 mm 2 mps 739 mmHg 80%
    06:00 +20°C° 0 mm 2 mps 740 mmHg 78%
    07:00 +20°C° 0 mm 2 mps 740 mmHg 77%
    08:00 +22°C° 0 mm 3 mps 740 mmHg 67%
    09:00 +24°C° 0 mm 3 mps 741 mmHg 57%
    10:00 +26°C° 0 mm 3 mps 741 mmHg 47%
    11:00 +26°C° 0 mm 3 mps 741 mmHg 43%
    12:00 +27°C° 0 mm 4 mps 742 mmHg 40%
    13:00 +27°C° 0 mm 4 mps 742 mmHg 36%
    14:00 +27°C° 0 mm 4 mps 742 mmHg 38%
    15:00 +27°C° 0 mm 4 mps 742 mmHg 39%
    16:00 +26°C° 0 mm 3 mps 743 mmHg 40%
    17:00 +24°C° 0 mm 3 mps 743 mmHg 51%
    18:00 +21°C° 0 mm 3 mps 744 mmHg 62%
    19:00 +18°C° 0 mm 3 mps 744 mmHg 73%
    20:00 +18°C° 0.1 mm 3 mps 745 mmHg 76%
    21:00 +18°C° 0.1 mm 3 mps 746 mmHg 78%
    22:00 +17°C° 0.1 mm 3 mps 747 mmHg 81%
    23:00 +17°C° 0.1 mm 2 mps 747 mmHg 81%

    Tomorrow, 25 September, Tuesday

    Time Temperature Precipitation Wind Pressure Humidity
    00:00 +17°C° 0.1 mm 2 mps 747 mmHg 81%
    01:00 +16°C° 0.1 mm 2 mps 748 mmHg 81%
    02:00 +16°C° 0 mm 2 mps 748 mmHg 81%
    03:00 +16°C° 0 mm 2 mps 748 mmHg 81%
    04:00 +16°C° 0 mm 2 mps 748 mmHg 81%
    05:00 +15°C° 0 mm 2 mps 748 mmHg 81%
    06:00 +15°C° 0 mm 1 mps 748 mmHg 81%
    07:00 +15°C° 0 mm 1 mps 749 mmHg 81%
    08:00 +16°C° 0 mm 2 mps 749 mmHg 75%
    09:00 +17°C° 0 mm 2 mps 749 mmHg 70%
    10:00 +18°C° 0 mm 2 mps 749 mmHg 64%
    11:00 +18°C° 0 mm 2 mps 749 mmHg 61%
    12:00 +19°C° 0 mm 2 mps 749 mmHg 58%
    13:00 +20°C° 0 mm 3 mps 749 mmHg 55%
    14:00 +20°C° 0 mm 3 mps 749 mmHg 55%
    15:00 +20°C° 0 mm 3 mps 749 mmHg 55%
    16:00 +20°C° 0 mm 3 mps 749 mmHg 55%
    17:00 +19°C° 0 mm 2 mps 749 mmHg 60%
    18:00 +17°C° 0 mm 2 mps 749 mmHg 64%
    19:00 +16°C° 0 mm 1 mps 750 mmHg 69%
    20:00 +16°C° 0 mm 1 mps 750 mmHg 70%
    21:00 +15°C° 0 mm 1 mps 751 mmHg 71%
    22:00 +15°C° 0 mm 2 mps 752 mmHg 72%
    23:00 +14°C° 0 mm 2 mps 752 mmHg 73%

    Day after tomorrow, 26 September, Wednesday

    Time Temperature Precipitation Wind Pressure Humidity
    00:00 +14°C° 0 mm 2 mps 752 mmHg 73%
    01:00 +14°C° 0 mm 2 mps 752 mmHg 74%
    02:00 +13°C° 0 mm 1 mps 752 mmHg 74%
    03:00 +13°C° 0 mm 1 mps 752 mmHg 74%
    04:00 +13°C° 0 mm 1 mps 752 mmHg 74%
    05:00 +13°C° 0 mm 1 mps 753 mmHg 75%
    06:00 +13°C° 0 mm 1 mps 753 mmHg 75%
    07:00 +13°C° 0 mm 1 mps 753 mmHg 75%
    08:00 +14°C° 0 mm 1 mps 753 mmHg 68%
    09:00 +16°C° 0 mm 1 mps 753 mmHg 61%
    10:00 +18°C° 0 mm 2 mps 753 mmHg 55%
    11:00 +19°C° 0 mm 2 mps 753 mmHg 52%
    12:00 +20°C° 0 mm 2 mps 752 mmHg 50%
    13:00 +21°C° 0 mm 2 mps 752 mmHg 48%
    14:00 +21°C° 0 mm 2 mps 752 mmHg 48%
    15:00 +21°C° 0 mm 2 mps 751 mmHg 49%
    16:00 +21°C° 0 mm 2 mps 751 mmHg 49%
    17:00 +21°C° 0 mm 1 mps 751 mmHg 56%
    18:00 +19°C° 0 mm 1 mps 751 mmHg 63%
    19:00 +15°C° 0 mm 0 mps 751 mmHg 70%
    20:00 +14°C° 0 mm 0 mps 752 mmHg 71%
    21:00 +14°C° 0 mm 0 mps 752 mmHg 72%
    22:00 +14°C° 0 mm 0 mps 752 mmHg 73%
    23:00 +14°C° 0 mm 1 mps 752 mmHg 73%

    27 September, Thursday

    Time Temperature Precipitation Wind Pressure Humidity
    00:00 +14°C° 0 mm 1 mps 752 mmHg 74%
    01:00 +14°C° 0 mm 1 mps 752 mmHg 74%
    02:00 +14°C° 0 mm 1 mps 752 mmHg 74%
    03:00 +14°C° 0 mm 1 mps 751 mmHg 75%
    04:00 +14°C° 0 mm 1 mps 751 mmHg 75%
    05:00 +14°C° 0 mm 1 mps 751 mmHg 74%
    06:00 +14°C° 0 mm 1 mps 751 mmHg 73%
    07:00 +14°C° 0 mm 1 mps 750 mmHg 73%
    08:00 +18°C° 0 mm 1 mps 750 mmHg 65%
    09:00 +20°C° 0 mm 1 mps 750 mmHg 57%
    10:00 +23°C° 0 mm 1 mps 750 mmHg 48%
    11:00 +24°C° 0 mm 1 mps 750 mmHg 46%
    12:00 +25°C° 0 mm 2 mps 750 mmHg 44%
    13:00 +27°C° 0 mm 2 mps 749 mmHg 42%
    14:00 +27°C° 0 mm 2 mps 749 mmHg 42%
    15:00 +27°C° 0 mm 2 mps 748 mmHg 43%
    16:00 +27°C° 0 mm 2 mps 748 mmHg 44%
    17:00 +24°C° 0 mm 1 mps 748 mmHg 52%
    18:00 +22°C° 0 mm 1 mps 747 mmHg 59%
    19:00 +20°C° 0 mm 1 mps 747 mmHg 67%
    20:00 +19°C° 0 mm 1 mps 747 mmHg 67%
    21:00 +19°C° 0 mm 1 mps 747 mmHg 67%
    22:00 +19°C° 0 mm 1 mps 747 mmHg 68%
    23:00 +18°C° 0 mm 1 mps 747 mmHg 68%

    28 September, Friday

    Time Temperature Precipitation Wind Pressure Humidity
    00:00 +18°C° 0 mm 1 mps 746 mmHg 68%
    01:00 +18°C° 0 mm 1 mps 746 mmHg 68%
    02:00 +16°C° 0 mm 1 mps 746 mmHg 67%
    03:00 +16°C° 0 mm 1 mps 745 mmHg 67%
    04:00 +16°C° 0 mm 1 mps 745 mmHg 66%
    05:00 +16°C° 0 mm 1 mps 744 mmHg 64%
    06:00 +16°C° 0 mm 1 mps 744 mmHg 62%
    07:00 +16°C° 0 mm 1 mps 744 mmHg 60%
    08:00 +20°C° 0 mm 1 mps 744 mmHg 54%
    09:00 +22°C° 0 mm 1 mps 743 mmHg 48%
    10:00 +25°C° 0 mm 1 mps 743 mmHg 42%
    11:00 +26°C° 0 mm 1 mps 743 mmHg 40%
    12:00 +27°C° 0 mm 1 mps 742 mmHg 38%
    13:00 +28°C° 0 mm 2 mps 742 mmHg 37%
    14:00 +28°C° 0 mm 2 mps 742 mmHg 38%
    15:00 +28°C° 0 mm 2 mps 741 mmHg 39%
    16:00 +28°C° 0 mm 2 mps 741 mmHg 40%
    17:00 +26°C° 0 mm 1 mps 741 mmHg 48%
    18:00 +23°C° 0 mm 1 mps 741 mmHg 55%
    19:00 +21°C° 0 mm 1 mps 741 mmHg 63%
    20:00 +21°C° 0 mm 1 mps 741 mmHg 63%
    21:00 +20°C° 0 mm 1 mps 741 mmHg 63%
    22:00 +20°C° 0 mm 1 mps 741 mmHg 63%
    23:00 +19°C° 0 mm 1 mps 741 mmHg 64%

    29 September, Saturday

    Time Temperature Precipitation Wind Pressure Humidity
    00:00 +19°C° 0 mm 1 mps 741 mmHg 64%
    01:00 +19°C° 0 mm 1 mps 741 mmHg 64%
    02:00 +18°C° 0 mm 1 mps 740 mmHg 64%
    03:00 +18°C° 0 mm 1 mps 740 mmHg 63%
    04:00 +18°C° 0 mm 1 mps 740 mmHg 63%
    05:00 +18°C° 0 mm 1 mps 740 mmHg 62%
    06:00 +18°C° 0 mm 1 mps 740 mmHg 61%
    07:00 +18°C° 0 mm 1 mps 740 mmHg 60%
    08:00 +20°C° 0 mm 1 mps 740 mmHg 55%
    09:00 +22°C° 0 mm 1 mps 740 mmHg 49%
    10:00 +25°C° 0 mm 1 mps 741 mmHg 44%
    11:00 +26°C° 0 mm 1 mps 740 mmHg 42%
    12:00 +27°C° 0 mm 2 mps 740 mmHg 41%
    13:00 +28°C° 0 mm 2 mps 740 mmHg 40%
    14:00 +27°C° 0 mm 2 mps 740 mmHg 41%
    15:00 +27°C° 0 mm 2 mps 740 mmHg 42%
    16:00 +27°C° 0 mm 2 mps 740 mmHg 43%
    17:00 +25°C° 0 mm 1 mps 740 mmHg 51%
    18:00 +23°C° 0 mm 1 mps 741 mmHg 58%
    19:00 +20°C° 0 mm 1 mps 741 mmHg 66%
    20:00 +20°C° 0 mm 1 mps 741 mmHg 68%
    21:00 +20°C° 0 mm 1 mps 742 mmHg 70%
    22:00 +19°C° 0 mm 1 mps 742 mmHg 72%
    23:00 +19°C° 0 mm 1 mps 742 mmHg 73%
    Show more